Location: �perlecques
(50.8057°N, 2.1521°E)
Time: 09:13:50
(UTC+00:00)

ALOS 2 - Pass Details

Date: 09 April 2020
Orbit: 630 x 632 km, 97.9° (Epoch: 01 June)

Event Time Altitude Azimuth Distance (km) Brightness Sun altitude
Exits shadow 22:37:30 34° 28° (NNE) 1,045 3.9 -29.0°
Drops below altitude 10° 22:40:27 10° 358° (N) 2,027 6.0 -29.1°
Sets 22:42:44 0° 351° (N) 2,940 7.2 -29.2°
